This is the latest recevied weather packets stored in our database for station/object OE6ACM-10. If no packets are shown the sender has not sent any weather packets the latest 10 day(s).
| Time | Temp. | Humidity | Pressure | Rain* | Wind** | Luminosity | Snow |
|---|---|---|---|---|---|---|---|
| 1777837779 | 26.11° C | 100% | 927 hPa | - | - | - | - |
| 1777837479 | 25.56° C | 100% | 927 hPa | - | - | - | - |
| 1777837179 | 26.11° C | 100% | 926.9 hPa | - | - | - | - |
| 1777836879 | 26.11° C | 100% | 926.8 hPa | - | - | - | - |
| 1777836579 | 26.67° C | 100% | 926.7 hPa | - | - | - | - |
| 1777836279 | 26.67° C | 100% | 926.7 hPa | - | - | - | - |
| 1777835979 | 26.67° C | 100% | 926.7 hPa | - | - | - | - |
| 1777835679 | 27.22° C | 96% | 926.6 hPa | - | - | - | - |
| 1777835379 | 27.22° C | 97% | 926.6 hPa | - | - | - | - |
| 1777835079 | 27.78° C | 94% | 926.5 hPa | - | - | - | - |
| 1777834779 | 27.78° C | 91% | 926.4 hPa | - | - | - | - |
| 1777834479 | 28.33° C | 93% | 926.4 hPa | - | - | - | - |
| 1777834179 | 28.33° C | 90% | 926.3 hPa | - | - | - | - |
| 1777833879 | 28.33° C | 88% | 926.3 hPa | - | - | - | - |
| 1777833579 | 28.89° C | 88% | 926.2 hPa | - | - | - | - |
| 1777833279 | 28.89° C | 85% | 926.1 hPa | - | - | - | - |
| 1777832979 | 29.44° C | 85% | 926 hPa | - | - | - | - |
| 1777832679 | 29.44° C | 86% | 925.9 hPa | - | - | - | - |
| 1777832379 | 30° C | 85% | 925.8 hPa | - | - | - | - |
| 1777832079 | 30.56° C | 77% | 925.7 hPa | - | - | - | - |
| 1777831779 | 31.11° C | 75% | 925.7 hPa | - | - | - | - |
| 1777831479 | 31.11° C | 71% | 925.6 hPa | - | - | - | - |
| 1777831179 | 31.67° C | 68% | 925.5 hPa | - | - | - | - |
| 1777830879 | 32.22° C | 67% | 925.5 hPa | - | - | - | - |
| 1777830579 | 32.22° C | 67% | 925.5 hPa | - | - | - | - |
* Rain since midnight (hover to see other rain measurements)
** Current wind speed in m/s (hover to see current wind gust speed)